THORAD AGENA D DEB, 42534

Orbit data source: Space-Track

THORAD AGENA D DEB, 42534 is space debris in LEO originally from a launch on Wed, 08 Apr 1970 UTC launched from the Air Force Western Test Range (AFWTR). Debris objects in space refer to the collection of defunct objects orbiting the Earth. Examples of debris include non-operational satellites, rocket bodies, and fragments generated from explosions, collisions, or faulty payload assembly.

Loading next visibility...
THORAD AGENA D DEB details
Identifier
42534, 1970-025SQ
Orbit
LEO
Last TLE update8 hours ago
Origin
Flag of USNASA LeRC (US)
ManufacturerUnknown
MissionSpacecraft
Bus & MotorUnknown
MassUnknown
Launch date (UTC)
1970-04-08 (55 years ago)
Launch vehicleUnknown
Launch site
Air Force Western Test Range (AFWTR)
Object type
Payload
Rocket body
Debris
Shape & HBRUnknown
Radar Cross SectionSmall (<0.1 m²)

Expand to show TLE details & history

TLE from 8 hours ago
0 THORAD AGENA D DEB
1 42534U 70025SQ  24340.11234466  .00000037  00000-0  28529-3 0  9991
2 42534 101.7618  36.5847 0194834 179.4307 180.7043 12.95393760515938
Epoch: 2024-12-05T02:41Z
Definitive object data (Epoch: 2024-12-05T02:41:46.578Z)
Latitude-0.00012°
Longitude-78.25717°
Altitude1,432.051 km
Speed7.075 km/s
True Right ascension02h 26m 20s
True Declination0° 00' 00"
Sunlit
Object was in full shadow at TLE epoch
Visualization TLE readout
Latitude35.31536°
Longitude110.54567°
Altitude1,161.259 km
Speed7.334 km/s
Apparent Right ascension17h 31m 00s
Apparent Declination1° 53' 47"
Sunlit
Object is in daylight
Visualization observer readout
Local Sidereal Time08:49:52
Azimuth60.011° ENE
Elevation-28.319°
Doppler factor1
Orbital elements
Apogee altitude1,426.839 km
Perigee altitude1,128.517 km
Semi-major axis7,655.815 km
Eccentricity0.0194834
Inclination101.7618°
RAAN36.5847°
Arg. of periapsis179.4307°
True anomaly180.67751°
Mean anomaly180.7043°
Eccentric anomaly180.69084°
Mean motion3.24008 °/min
BSTAR0.00028529
Orbital period111.11 mins
Loading maneuver chart data...

THORAD AGENA D DEB Visibility forecast

Observer location: undefined°, undefined

Span
Click to sort rows by Start time (UTC) header in descending order
Start Az.
Max El. time (UTC)
Max El. Az.
Max El.
End time (UTC)
End Az.
12 mins2024-12-05 16:18:25.423Z32.938° NE2024-12-05 16:24:25.423Z104.663° ESE34.802°2024-12-05 16:30:25.423Z171.113° S
10 mins2024-12-05 18:08:25.423Z354.73° N2024-12-05 18:13:25.423Z297.685° NW29.364°2024-12-05 18:18:25.423Z242.189° WSW
13 mins2024-12-06 02:55:25.423Z130.5° SE2024-12-06 03:01:25.423Z70.397° E36.493°2024-12-06 03:08:25.423Z355.514° N
12 mins2024-12-06 04:45:25.423Z202.567° SW2024-12-06 04:50:25.423Z252.655° W31.656°2024-12-06 04:57:25.423Z323.851° NNW
|